Location: Newton_East
(35.6670°N, 81.2000°W)
Time: 16:39:03
(UTC-04:00)

ISS - Visible Passes

Search period start: 01 October 2016 00:00
Search period end: 11 October 2016 00:00
Orbit: 400 x 409 km, 51.6° (Epoch: 02 October)

Date Brightness Start Highest point End Pass type
(mag) Time Alt. Az. Time Alt. Az. Time Alt. Az.
01 Oct -2.4 19:40:27 10° WSW 19:43:35 47° NW 19:46:46 10° NE visible
02 Oct -0.5 20:26:32 10° WNW 20:28:17 14° NNW 20:30:02 10° N visible
03 Oct -1.0 19:33:20 10° W 19:35:55 21° NNW 19:38:29 10° NNE visible
05 Oct -0.5 19:27:04 10° NW 19:28:20 12° NNW 19:29:36 10° N visible
